This demonstration page uses our WeatherBlox Daily Observations layout. Learn more.

Left ArrowRight Arrow

39.51506, -84.39828

Hourly Observations for March 23, 2020

Temp ( °F °C ) Dew Point ( °F °C ) Humidity (%) Winds ( mph kmh ) Pressure ( in mb ) Visibility ( mi km ) Precip ( " mm )
12:15 am 00:15 Cloudy 39 4 37 2.6 91 91 Calm 30.2 1023 10 16.0934 0 0
12:35 am 00:35 Cloudy 40 4.4 36 2.4 87 87 Calm 30.2 1023 10 16.0934 0 0
12:55 am 00:55 Cloudy 40 4.7 37 2.6 86 86 N 3 6 30.19 1022 10 16.0934 0 0
1:15 am 01:15 Cloudy 41 4.8 37 2.5 85 85 Calm 30.19 1022 10 16.0934 0 0
1:35 am 01:35 Cloudy 41 4.9 37 2.9 87 87 Calm 30.18 1022 10 16.0934 0 0
1:55 am 01:55 Cloudy 41 4.9 38 3.2 89 89 Calm 30.17 1022 10 16.0934 0 0
2:15 am 02:15 Cloudy 42 5.3 38 3.2 86 86 Calm 30.17 1022 7 11.26538 0 0
2:35 am 02:35 Cloudy with Drizzle 42 5.5 40 4.2 91 91 Calm 30.16 1021 4 6.43736 0 0
2:55 am 02:55 Cloudy with Drizzle 42 5.3 40 4.7 96 96 Calm 30.15 1021 2 3.21868 0 0
3:15 am 03:15 Cloudy with Drizzle 41 5.1 41 4.8 98 98 Calm 30.14 1021 2 3.21868 0 0
3:35 am 03:35 Cloudy with Drizzle 41 5 41 4.8 99 99 Calm 30.12 1020 2.5 4.02335 0 0
3:55 am 03:55 Cloudy with Mist and Fog 41 4.9 41 4.8 99 99 Calm 30.1 1019 2 3.21868 0 0
4:15 am 04:15 Cloudy with Drizzle 41 4.9 41 4.8 99 99 N 3 6 30.09 1019 2.5 4.02335 0 0
4:35 am 04:35 Cloudy with Drizzle 41 4.9 41 4.8 99 99 Calm 30.08 1019 2.5 4.02335 0 0
4:55 am 04:55 Cloudy with Drizzle 41 4.8 40 4.7 99 99 Calm 30.07 1018 2 3.21868 0 0
5:15 am 05:15 Cloudy with Drizzle 41 4.9 41 4.8 99 99 Calm 30.08 1019 2.5 4.02335 0 0
5:35 am 05:35 Cloudy with Drizzle 41 4.9 41 4.8 99 99 Calm 30.08 1019 2.5 4.02335 0 0
5:55 am 05:55 Cloudy with Drizzle 41 4.9 41 4.8 99 99 Calm 30.08 1019 2.5 4.02335 0 0
6:15 am 06:15 Cloudy with Drizzle 41 4.9 41 4.8 99 99 Calm 30.08 1019 3 4.82802 0 0
6:35 am 06:35 Cloudy with Drizzle 41 4.9 41 4.8 99 99 Calm 30.08 1019 3.5 5.63269 0 0
6:55 am 06:55 Cloudy with Drizzle 41 5 41 4.9 99 99 Calm 30.09 1019 3.5 5.63269 0 0
7:15 am 07:15 Cloudy with Mist and Fog 41 5.1 41 5 99 99 Calm 30.09 1019 5 8.0467 0 0
7:35 am 07:35 Cloudy with Mist and Fog 41 5.1 41 4.9 99 99 Calm 30.1 1019 4 6.43736 0 0
7:55 am 07:55 Cloudy with Mist and Fog 41 5.2 41 5 99 99 Calm 30.12 1020 3 4.82802 0 0
8:15 am 08:15 Cloudy with Mist and Fog 41 5.2 41 5 99 99 Calm 30.14 1021 2 3.21868 0 0
8:35 am 08:35 Cloudy with Mist and Fog 42 5.3 41 4.9 97 97 Calm 30.14 1021 5 8.0467 0 0
8:55 am 08:55 Cloudy 42 5.5 40 4.7 95 95 Calm 30.14 1021 10 16.0934 0 0
9:15 am 09:15 Cloudy 42 5.6 41 4.8 95 95 Calm 30.14 1021 10 16.0934 0 0
9:35 am 09:35 Cloudy 43 6.1 41 5 93 93 WNW 3 6 30.14 1021 10 16.0934 0 0
9:55 am 09:55 Cloudy 44 6.6 41 5.1 90 90 NW 6 9 30.15 1021 10 16.0934 0 0
10:15 am 10:15 Cloudy 44 6.7 40 4.5 86 86 NW 10 17 30.15 1021 10 16.0934 0 0
10:35 am 10:35 Cloudy 44 6.7 39 3.9 83 83 NW 8 13 30.16 1021 10 16.0934 0 0
10:55 am 10:55 Cloudy 44 6.6 39 4 84 84 WNW 8 13 30.16 1021 10 16.0934 0 0
11:15 am 11:15 Cloudy 45 7 39 3.8 80 80 NW 7 11 30.16 1021 10 16.0934 0 0
11:35 am 11:35 Cloudy 46 7.6 40 4.3 80 80 NW 3 6 30.16 1021 10 16.0934 0 0
11:55 am 11:55 Cloudy 46 7.8 39 3.9 77 77 WNW 5 7 30.15 1021 10 16.0934 0 0
12:15 pm 12:15 Mostly Cloudy 46 7.9 39 3.8 76 76 WNW 7 11 30.16 1021 10 16.0934 0 0
12:35 pm 12:35 Cloudy 47 8.6 39 3.7 72 72 W 9 15 30.16 1021 10 16.0934 0 0
12:55 pm 12:55 Cloudy 48 9 38 3.6 69 69 NNW 9 15 30.16 1021 10 16.0934 0 0
1:15 pm 13:15 Cloudy 48 9 38 3.6 69 69 NW 12 19 30.16 1021 10 16.0934 0 0
1:35 pm 13:35 Cloudy 50 9.9 40 4.2 68 68 W 10 17 30.16 1021 10 16.0934 0 0
1:55 pm 13:55 Mostly Cloudy 50 10.2 40 4.3 67 67 NNW 9 15 30.16 1021 10 16.0934 0 0
2:15 pm 14:15 Mostly Cloudy 50 9.9 38 3.3 64 64 NNW 8 13 30.16 1021 10 16.0934 0 0
2:35 pm 14:35 Cloudy 51 10.4 38 3.6 63 63 NNW 9 15 30.15 1021 10 16.0934 0 0
2:55 pm 14:55 Mostly Cloudy 51 10.4 38 3.6 63 63 NNW 9 15 30.15 1021 10 16.0934 0 0
3:15 pm 15:15 Mostly Cloudy 49 9.4 37 3 65 65 NNW 9 15 30.15 1021 10 16.0934 0 0
3:35 pm 15:35 Mostly Cloudy 48 9.1 37 2.8 65 65 NNW 9 15 30.15 1021 10 16.0934 0 0
3:55 pm 15:55 Cloudy 48 8.9 38 3.6 70 70 NW 7 11 30.15 1021 10 16.0934 0 0
4:15 pm 16:15 Partly Cloudy 48 8.9 37 3 67 67 NNW 7 11 30.15 1021 10 16.0934 0 0
4:35 pm 16:35 Partly Cloudy 48 8.9 37 2.5 65 65 NNW 9 15 30.15 1021 10 16.0934 0 0
4:55 pm 16:55 Partly Cloudy 48 9.1 37 2.7 65 65 NNW 7 11 30.15 1021 10 16.0934 0 0
5:15 pm 17:15 Partly Cloudy 49 9.7 38 3.1 64 64 NW 7 11 30.15 1021 10 16.0934 0 0
5:35 pm 17:35 Partly Cloudy 49 9.7 38 3.1 64 64 W 7 11 30.15 1021 10 16.0934 0 0
5:55 pm 17:55 Partly Cloudy 49 9.5 38 3.2 65 65 WNW 7 11 30.16 1021 10 16.0934 0 0
6:15 pm 18:15 Partly Cloudy 49 9.2 37 3 65 65 N 12 19 30.16 1021 10 16.0934 0 0
6:35 pm 18:35 Sunny 48 8.9 37 2.9 66 66 N 8 13 30.16 1021 10 16.0934 0 0
6:55 pm 18:55 Sunny 47 8.5 37 2.6 67 67 NNW 7 11 30.17 1022 10 16.0934 0 0
7:15 pm 19:15 Sunny 47 8.1 37 2.7 69 69 NNW 7 11 30.17 1022 10 16.0934 0 0
7:35 pm 19:35 Partly Cloudy 45 7.4 37 2.7 72 72 N 9 15 30.18 1022 10 16.0934 0 0
7:55 pm 19:55 Partly Cloudy 44 6.9 37 2.5 74 74 N 7 11 30.18 1022 10 16.0934 0 0
8:15 pm 20:15 Partly Cloudy 43 6.3 37 2.6 77 77 N 8 13 30.19 1022 10 16.0934 0 0
8:35 pm 20:35 Cloudy 43 6 37 2.6 79 79 N 6 9 30.2 1023 10 16.0934 0 0
8:55 pm 20:55 Cloudy 43 6 37 2.6 79 79 N 7 11 30.21 1023 10 16.0934 0 0
9:15 pm 21:15 Mostly Cloudy 42 5.7 37 2.5 80 80 NNE 8 13 30.21 1023 10 16.0934 0 0
9:35 pm 21:35 Cloudy 42 5.7 37 2.5 80 80 NNE 7 11 30.22 1023 10 16.0934 0 0
9:55 pm 21:55 Cloudy 42 5.6 37 2.5 81 81 NNE 8 13 30.21 1023 10 16.0934 0 0
10:15 pm 22:15 Partly Cloudy 41 5.2 36 2.2 81 81 N 7 11 30.21 1023 10 16.0934 0 0
10:35 pm 22:35 Mostly Cloudy 41 4.8 36 2.2 83 83 N 6 9 30.22 1023 10 16.0934 0 0
10:55 pm 22:55 Clear 41 4.8 36 2.2 83 83 N 7 11 30.22 1023 10 16.0934 0 0
11:15 pm 23:15 Clear 40 4.4 36 2 85 85 NNE 5 7 30.22 1023 10 16.0934 0 0
11:35 pm 23:35 Clear 39 4.1 35 1.9 86 86 N 3 6 30.22 1024 10 16.0934 0 0
11:55 pm 23:55 Clear 39 3.9 35 1.9 87 87 Calm 30.22 1024 10 16.0934 0 0

Powered by AerisWeather